C/2003 A2 (Gleason)                                                   

Epoch 2003 Nov. 17.0 TT = JDT 2452960.5  

T 2003 Nov. 5.81066 TT                                  Nakano

q  11.4269472            (2000.0)            P               Q

z  -0.0006022      Peri.  346.66702     -0.78044205     -0.62231601

 +/-0.0000030      Node   154.54437     +0.58573159     -0.76145594

e   1.0068818      Incl.    8.06139     +0.21869777     -0.18140463

From 142 observations 2002 Jan. 8-2005 Mar. 31, mean residual 0".58.

   (1/a)org.= +0.000035, (1/a)fut.= +0.000128 (+/-0.000003), Q= 8.

Residuals in seconds of arc 

2002/                     030113 291  0.4-  0.1-    030311 568  0.5-  0.6-  

020108 644  0.1-  0.2-    030113 291  0.3-  0.2+    030311 568  0.5-  0.6-  

020108 644  0.5+  0.5-    030113 413  0.6+  0.7-    030312 568  0.7-  0.4-  

020108 644  0.1+  0.6-    030113 413  0.4+  0.6-    030312 568  0.7-  0.4-  

020206 644  0.2-  0.9+    030113 413  0.3-  0.5-    030321 941  0.3-  0.8+  

020206 644  0.4-  0.7+    030114 850  0.3+  0.3-    030321 941  0.3-  0.6+  

020206 644  0.3-  0.7+    030114 850  0.6-  1.2+    030326 360  0.6-  0.3-  

020216 644  0.1+  0.2-    030114 711  1.3-  0.9-    030326 360  0.2-  0.3+  

020216 644  0.3+  0.0     030114 850  0.6+  0.0     030326 360  0.1+  0.0   

020216 644  0.0   0.2-    030114 711  0.0   0.7+    030403 213 (1.2+  2.1-) 

020305 644  0.5+  0.2+    030125 204  0.3+  0.8-    030403 213 (1.3+  2.4-) 

020305 644  0.3-  0.2-    030125 204  0.1-  0.4-    031227 461  0.6-  1.3-  

020305 644  0.2-  0.5+    030125 204  0.1+  0.4+    2004/                   

021114 644  0.2-  0.5-    030127 644  0.0   0.7+    040117 360  0.3-  0.7+  

021114 644  0.2-  0.3-    030127 644  0.1+  0.4+    040117 360  0.1-  0.2+  

021114 644  0.4-  1.1-    030127 644  0.1+  0.0     040117 360  0.5+  0.4-  

021120 644  1.3-  0.6+    030128 620  0.7+  0.8-    040131 360  0.3-  0.6-  

2003/                     030128 620  0.7-  0.0     040131 360  0.7+  0.1-  

030110 291  0.2-  0.5+    030129 291  0.6-  0.4-    040131 360  0.6-  0.1+  

030110 291  0.2+  0.2+    030129 291  0.1-  0.3+    040205 204  0.1-  0.1-  

030110 291  0.3+  0.0     030129 291  0.6-  0.6-    040211 644  0.2-  0.6+  

030110 291  0.1-  0.3-    030201 246  0.2+  0.1+    040211 644  0.4+  0.8+  

030110 291  0.2+  0.4+    030201 246  0.1-  0.5-    040211 644  0.0   0.1+  

030110 291  0.5-  1.1+    030201 246  0.5-  0.2+    040218 360  0.2-  0.0   

030111 850 (3.1+  3.5-)   030201 246  0.2+  0.2-    040218 360  0.3-  0.5-  

030111 850 (0.5-  3.6-)   030201 246  0.1+  0.7-    040310 644  0.1-  0.0   

030111 850 (1.9-  2.3+)   030201 246  0.2+  0.4+    040310 644  0.0   0.6+  

030111 291  0.5-  0.0     030202 360  0.1-  0.6-    040310 644  0.2-  0.2+  

030111 850  0.5-  1.6+    030202 360  0.0   0.8-    040315 360  0.0   0.6+  

030111 858  0.6+  0.1-    030202 360  0.0   0.5-    040315 360  0.6+  0.6-  

030111 291  0.0   0.3+    030206 360  0.4-  0.4-    040315 360  1.3+  0.3-  

030111 850  1.1+  0.7+    030206 360  0.6-  0.7-    040317 215 (1.2+  2.8-) 

030111 858  0.5+  0.7-    030212 620  1.3+  0.5+    040319 644  0.2+  0.1-  

030111 291  0.5-  0.0     030222 246  0.3-  0.4+    040319 644  0.3+  0.5-  

030111 858  1.8+  1.4+    030222 246  0.2+  0.6+    040319 644  0.1+  0.2+  

030111 246  1.3+  1.4+    030222 246  0.4+  0.0     040320 691  0.2+  0.6-  

030112 246  1.0+  1.6+    030222 246  0.4+  0.5+    040320 691  0.1+  0.3-  

030112 246  0.3-  0.5-    030223 587  0.0   0.1-    040320 691  0.1-  0.3+  

030112 246  0.4-  1.0+    030224 246  0.1-  0.6-    040411 360  0.5-  0.4+  

030112 246  0.9+  0.5-    030224 246  0.1-  0.0     040411 360  0.9-  0.2-  

030112 246  0.4+  0.1+    030224 246  1.0+  0.4-    2005/                   

030112 850 (2.2+  0.4-)   030224 246  0.3+  0.4-    050213 360  0.3-  0.6+  

030112 858  1.5+  0.4-    030224 246  0.7+  0.3-    050213 360  0.1-  1.0+  

030112 858  1.8+  0.9-    030224 246  0.6+  0.4-    050213 360  0.8+  0.1+  

030112 850 (2.9+  0.4+)   030225 024  0.7-  1.3+    050304 213  0.6+  0.2+  

030112 291  1.2-  0.6+    030227 230  0.4-  0.3-    050304 213  0.0   0.2+  

030112 291  0.7-  0.5-    030228 230  0.1+  0.9-    050304 213  0.6-  0.5-  

030112 291  1.2-  0.7+    030304 213 (2.9+  1.4-)   050304 213  0.7-  0.4-  

030113 291  0.4-  0.0     030304 213  0.0   0.2-    050331 360  0.2+  0.4-  

030113 291  0.2-  0.5+    030304 213  1.4-  1.5-    050331 360  0.5+  0.0   

030113 291  0.0   0.2-    030308 291  1.4+  0.0     050331 360  0.0   0.2+  

030113 291  0.2+  0.2-    030308 291  0.5-  0.4+                            



NAKANO

         **** Don't distribute anyone except personal use only ****

                (C) Copyright 2005 OAA/ComputingSection

write mail from CFAD0::NAKANO on 2005-04-06 02:03:09(JST).





◎C/2003 A2の軌道と予報位置です



  久万の中村彰正氏から,2005年2月13日の観測に続いて,3月31日の観測が

報告されました.氏のCCD全光度は,それぞれ,19.7等と19.2等でした.



    C/2003 A2 (Gleason)                                                   

Epoch 2003 Nov. 17.0 TT = JDT 2452960.5  

T 2003 Nov. 5.81066 TT                                  Nakano

q  11.4269472            (2000.0)            P               Q

z  -0.0006022      Peri.  346.66702     -0.78044205     -0.62231601

 +/-0.0000030      Node   154.54437     +0.58573159     -0.76145594

e   1.0068818      Incl.    8.06139     +0.21869777     -0.18140463

From 142 observations 2002 Jan. 8-2005 Mar. 31, mean residual 0".58.

   (1/a)org.= +0.000035, (1/a)fut.= +0.000128 (+/-0.000003), Q= 8.

 

Date/        TT  R.A.(2000) Decl.     Delta   r     Daily motion  Mag.  Moon Age

              h    h  m       。  ,                      ,  / PA 。  m1      。

2005 Apr.  1 12  10 34.34  +09 47.3  10.889 11.720     2.3 / 299  18.7  118  .56

           2 12  10 34.21  +09 48.4  10.900 11.721     2.2 / 299  18.7  132  .45

           3 12  10 34.07  +09 49.4  10.910 11.722     2.1 / 299  18.7  146  .33

           4 12  10 33.95  +09 50.5  10.922 11.723     2.1 / 299  18.7  161  .23

           5 12  10 33.82  +09 51.5  10.933 11.724     2.0 / 299  18.7  174  .14

           6 12  10 33.70  +09 52.5  10.944 11.725     2.0 / 299  18.7  170  .07

           7 12  10 33.59  +09 53.4  10.956 11.726     1.9 / 300  18.7  156  .02

           8 12  10 33.48  +09 54.4  10.968 11.727     1.8 / 300  18.7  142  .00

           9 12  10 33.37  +09 55.3  10.980 11.729     1.8 / 300  18.7  129  .01

          10 12  10 33.27  +09 56.2  10.993 11.730     1.7 / 300  18.7  115  .03

          11 12  10 33.17  +09 57.0  11.005 11.731     1.6 / 301  18.7  102  .08

          12 12  10 33.07  +09 57.9  11.018 11.732     1.6 / 301  18.7   89  .14

          13 12  10 32.98  +09 58.7  11.031 11.733     1.5 / 302  18.7   77  .22

          14 12  10 32.90  +09 59.4  11.045 11.734     1.4 / 302  18.7   65  .30

          15 12  10 32.82  +10 00.2  11.058 11.735     1.3 / 302  18.7   53  .40

          16 12  10 32.74  +10 00.9  11.072 11.737     1.3 / 303  18.7   41  .49

          17 12  10 32.67  +10 01.6  11.085 11.738     1.2 / 304  18.7   29  .58

          18 12  10 32.60  +10 02.2  11.099 11.739     1.1 / 304  18.7   17  .68

          19 12  10 32.54  +10 02.9  11.114 11.740     1.0 / 305  18.8    6  .76

          20 12  10 32.48  +10 03.5  11.128 11.741     1.0 / 306  18.8    8  .84

          21 12  10 32.43  +10 04.1  11.143 11.742     0.9 / 307  18.8   20  .91

          22 12  10 32.38  +10 04.6  11.157 11.744     0.8 / 309  18.8   33  .96

          23 12  10 32.33  +10 05.1  11.172 11.745     0.7 / 310  18.8   46  .99

          24 12  10 32.30  +10 05.6  11.187 11.746     0.7 / 312  18.8   59 1.00

          25 12  10 32.26  +10 06.1  11.202 11.747     0.6 / 315  18.8   73  .99

          26 12  10 32.23  +10 06.5  11.217 11.748     0.5 / 318  18.8   87  .95

          27 12  10 32.21  +10 06.9  11.233 11.749     0.5 / 322  18.8  101  .88

          28 12  10 32.19  +10 07.2  11.248 11.751     0.4 / 328  18.8  115  .80

          29 12  10 32.18  +10 07.6  11.264 11.752     0.3 / 336  18.8  130  .70

          30 12  10 32.17  +10 07.9  11.280 11.753     0.3 / 347  18.8  144  .59

     May   1 12  10 32.16  +10 08.1  11.296 11.754     0.2 /   3  18.8  158  .47

NAKANO

         **** Don't distribute anyone except personal use only ****

                (C) Copyright 2005 OAA/ComputingSection

write mail from CFAD0::NAKANO on 2005-04-03 05:26:47(JST).







    C/2003 A2 (Gleason)                                                   

Epoch 2003 Nov. 17.0 TT = JDT 2452960.5  

T 2003 Nov. 5.81148 TT                                  Nakano

q  11.4269401            (2000.0)            P               Q

z  -0.0006019      Peri.  346.66714     -0.78044236     -0.62231558

 +/-0.0000031      Node   154.54429     +0.58573117     -0.76145638

e   1.0068781      Incl.    8.06142     +0.21869777     -0.18140425

From 135 observations 2002 Jan. 8-2005 Feb. 13, mean residual 0".58.

   (1/a)org.= +0.000036, (1/a)fut.= +0.000129 (+/-0.000003), Q= 8.



NAKANO

         **** Don't distribute anyone except personal use only ****

                (C) Copyright 2005 OAA/ComputingSection

write mail from CFAD0::NAKANO on 2005-03-05 03:18:31(JST).

 



   C/2003 A2 (Gleason)                                                   

Epoch 2003 Nov. 17.0 TT = JDT 2452960.5  

T 2003 Nov. 5.81593 TT                                  Nakano

q  11.4269308            (2000.0)            P               Q

z  -0.0006017      Peri.  346.66705     -0.78044414     -0.62231346

 +/-0.0000032      Node   154.54454     +0.58572909     -0.76145762

e   1.0068751      Incl.    8.06134     +0.21869700     -0.18140632

From 132 observations 2002 Jan. 8-2004 Apr. 11, mean residual 0".58.

   (1/a)org.= +0.000036, (1/a)fut.= +0.000129 (+/-0.000003), Q= 8.



NAKANO

         **** Don't distribute anyone except personal use only ****

                (C) Copyright 2004 OAA/ComputingSection

